Location: Caltech
(34.1382°N, 118.1253°W)
Time: 16:46:44
(UTC-07:00)

PANSAT - Visible Passes

Search period start: 16 August 2017 00:00
Search period end: 26 August 2017 00:00
Orbit: 477 x 484 km, 28.5° (Epoch: 15 August)

Date Brightness Start Highest point End Pass type
(mag) Time Alt. Az. Time Alt. Az. Time Alt. Az.
16 Aug 10.5 03:42:55 10° ESE 03:42:55 10° ESE 03:42:59 10° ESE visible
16 Aug 8.5 05:17:03 19° WSW 05:19:10 33° S 05:22:36 10° ESE visible
17 Aug 8.3 04:49:14 32° SSW 04:49:34 33° S 04:53:01 10° ESE visible
18 Aug 9.2 04:21:30 23° SE 04:21:30 23° SE 04:23:25 10° ESE visible
19 Aug 9.2 05:28:02 14° SW 05:29:49 19° SSW 05:32:33 10° SSE visible
20 Aug 9.2 05:00:31 18° S 05:00:31 18° S 05:02:55 10° SSE visible
21 Aug 10.1 04:33:07 11° SSE 04:33:07 11° SSE 04:33:18 10° SSE visible
25 Aug 10.1 21:02:04 10° SSW 21:02:08 10° SSW 21:02:08 10° SSW visible
